This demonstration page uses our WeatherBlox Daily Observations layout. Learn more.

Left ArrowRight Arrow

Hourly Observations for July 3, 2022

Temp ( °F °C ) Dew Point ( °F °C ) Humidity (%) Winds ( mph kmh ) Pressure ( in mb ) Visibility ( mi km ) Precip ( " mm )
12:51 am 00:51 Clear 83 28.3 56 13.3 40 40 ESE 6 9 29.74 1007 10 16 0.00 0.00
1:51 am 01:51 Clear 81 27.2 57 13.9 44 44 ESE 12 19 29.75 1007 10 16 0.00 0.00
2:51 am 02:51 Mostly Clear 81 27.2 58 14.4 45 45 E 9 15 29.75 1008 10 16 0.00 0.00
3:51 am 03:51 Cloudy 79 26.1 62 16.7 56 56 SE 13 20 29.78 1009 10 16 0.00 0.00
4:51 am 04:51 Mostly Cloudy with Light Rain 73 22.8 67 19.4 81 81 ENE 9 15 29.80 1009 10 16 0.02 0.51
5:51 am 05:51 Mostly Cloudy 74 23.3 68 20 82 82 NNW 5 7 29.81 1010 10 16 0.00 0.00
6:51 am 06:51 Mostly Sunny 77 25 67 19.4 71 71 S 3 6 29.82 1010 10 16 0.00 0.00
7:51 am 07:51 Mostly Cloudy with Light Rain 78 25.6 69 20.6 74 74 Calm 29.81 1010 10 16 0.00 0.00
8:51 am 08:51 Sunny 82 27.8 66 18.9 58 58 SW 6 9 29.81 1009 10 16 0.00 0.00
9:51 am 09:51 Mostly Cloudy 87 30.6 61 16.1 42 42 SSE 10 17 29.80 1009 10 16 0.00 0.00
10:51 am 10:51 Sunny 89 31.7 58 14.4 35 35 VRB 5 7 29.78 1009 10 16 0.00 0.00
11:51 am 11:51 Sunny 92 33.3 57 13.9 31 31 VRB 5 7 29.75 1008 10 16 0.00 0.00
12:51 pm 12:51 Sunny 93 33.9 56 13.3 29 29 WSW 8 13 29.74 1007 10 16 0.00 0.00
1:51 pm 13:51 Sunny 95 35 59 15 30 30 WNW 13 20 29.72 1006 10 16 0.00 0.00
2:00 pm 14:00 Sunny with Nearby Thunderstorms 95 35 58 14.4 29 29 WNW 13 20 29.61 1003 10 16 0.00 0.00
2:15 pm 14:15 Sunny 93 33.9 58 14.4 31 31 WNW 12 19 29.62 1003 10 16 0.00 0.00
2:51 pm 14:51 Sunny 92 33.3 58 14.4 32 32 SW 9 15 29.72 1006 10 16 0.00 0.00
3:13 pm 15:13 Mostly Sunny 87 30.6 62 16.7 43 43 S 18 30 29.66 1005 10 16 0.00 0.00
3:51 pm 15:51 Mostly Sunny 89 31.7 60 15.6 38 38 S 8 13 29.72 1006 10 16 0.00 0.00
4:51 pm 16:51 Sunny 89 31.7 59 15 36 36 ESE 6 9 29.72 1006 10 16 0.00 0.00
5:51 pm 17:51 Sunny 90 32.2 58 14.4 34 34 VRB 6 9 29.72 1006 10 16 0.00 0.00
6:51 pm 18:51 Sunny 89 31.7 59 15 36 36 SE 7 11 29.73 1007 10 16 0.00 0.00
7:51 pm 19:51 Clear 87 30.6 60 15.6 40 40 ENE 9 15 29.73 1007 10 16 0.00 0.00
8:51 pm 20:51 Partly Cloudy 86 30 59 15 40 40 E 13 20 29.75 1007 10 16 0.00 0.00
9:51 pm 21:51 Clear 84 28.9 60 15.6 44 44 ENE 12 19 29.76 1008 10 16 0.00 0.00
10:51 pm 22:51 Clear 84 28.9 61 16.1 46 46 E 15 24 29.76 1008 10 16 0.00 0.00
11:51 pm 23:51 Clear 83 28.3 61 16.1 48 48 E 13 20 29.75 1008 10 16 0.00 0.00

Powered by AerisWeather